sat.trackr.live / text

‹ back to catalog

STARLINK-36292

NORAD 68509 · 2026-068B

PAYLOAD ACTIVE UNKNOWN

§ Identity

Operator
Country
US
Launch date
2026-03-30
Launch site
AFETR
Launch vehicle
Mass (kg)
RCS (m²)

Purposes: comms

External: N2YO · Heavens-Above · Gunter

§ Orbital elements

Epoch: 2026-05-25T05:24:41.832288Z

Period
93.85 min
Inclination
53.1610°
Eccentricity
0.0000550
Mean motion
15.34399271 rev/d
Perigee alt
462.3 km
Apogee alt
463.1 km
Semi-major
6,840.8 km
B*
6.8992e-4
RAAN
132.2907°
Arg perigee
41.5844°
Mean anomaly
318.5201°
Rev number
868

§ Raw data

STARLINK-362921 68509U 26068B   26145.22548417  .00023005  00000+0  68992-3 0  99972 68509  53.1610 132.2907 0000550  41.5844 318.5201 15.34399271  8682

JSON: /api/v1/satellites/68509 · /tle

For live sub-satellite position, see the globe view (requires WebGL).

§ Visibility from observer

Set your observer location to see the next 7 days of passes ≥ 10°. The values pass through the URL so the page stays shareable.

No JS? Fill the form by hand. The geolocation button needs JavaScript.